Showing default

OKEAN 1, 19274

Orbit data source: Space-Track

OKEAN 1, 19274 is a Commonwealth of Independent States-origin payload satellite in LEO that was launched on Tue, 05 Jul 1988 UTC via a TSIKLON-3 launch vehicle from the Plesetsk Missile And Space Complex (PKMTR). Payload-class satellites include a variety of spacecraft equipped with specific instruments for various scientific and technological missions. These include communications satellites like Starlink; space stations such as the ISS; scientific satellites like the Hubble; Earth observation satellites from companies like Planet Labs, Umbra, and HawkEye 360; GPS; miniature CubeSats for education and research; and military/defense satellites.

Loading next visibility...
Identifier
19274, 1988-056A
Orbit
LEO
Country
Flag of CISCIS
Related business
Manufacturer
Yuzhnoe
Mission
Defense Imaging
Bus & Motor
OKEAN, Unknown motor
Mass
1,944 kg wet, 1,944 kg dry
Launch date (UTC)
1988-07-05 (37 years ago)
Launch vehicle
TSIKLON-3
Launch site
Plesetsk Missile And Space Complex (PKMTR)
Object type
Payload
Rocket body
Debris
Shape & HBR
Cone + 2 Pan, 10.8 m
Radar Cross Section
2.079 m², Large (>1 m²)

Expand to show TLE details & history
Last TLE update: 14 hours ago

TLE from 14 hours ago
0 OKEAN 1
1 19274U 88056A   25354.00622489  .00006552  00000-0  22558-3 0  9993
2 19274  82.4701 343.7983 0015910  95.6726 264.6329 15.29729062 22891
Epoch: 2025-12-20T00:08Z
TLE epoch observation values (Epoch: 2025-12-20T00:08:57.830Z)
Latitude
-0°
Longitude
-107.28188°
Altitude
480.759 km
Speed
7.625 km/s
True Right ascension
22h 55m 11s
True Declination
0° 00' 00"
Sunlit
Object was in daylight at epoch
Visualization orbit readout
Latitude
Unknown
Longitude
Unknown
Altitude
Unknown
Speed
Unknown
Apparent Right ascension
Unknown
Apparent Declination
Unknown
Sunlit
N/A
Visualization observer readout
Local Sidereal Time
12:40:16
Azimuth
Unknown
Elevation
Unknown
Doppler factor
Unknown
Orbital elements
Apogee altitude
484.481 km
Perigee altitude
462.679 km
Semi-major axis
6,851.717 km
Eccentricity
0.00159
Inclination
82.4701°
RAAN
343.7983°
Arg. of periapsis
95.6726°
True anomaly
264.45142°
Mean anomaly
264.6329°
Eccentric anomaly
264.54216°
Mean motion
3.82687 °/min
Orbital period
94.07 mins
BSTAR
0.00022558
Loading maneuver chart data...
Computing Atmospheric mass density...
Loading historical data...
Loading historical data...
Loading historical data...
Loading historical data...
Loading historical data...
Loading historical data...
Loading historical data...
Other satellites on launch #56 in the year 1988 (1988-07-05 UTC)

Documentation

Showing up to 5 results
|